Regional Weather Roundup
Issued by NWS

Home | Current Version | Previous Version | Text Only | Print | Product List | Glossary Off
Versions: 1 2 3 4 5 6 7 8 9 10 11 12 13 14 15 16 17 18 19 20 21 22 23 24 25 26 27 28 29 30 31 32 33 34 35 36 37 38 39 40 41 42 43 44 45 46 47 48 49 50

000
ASUS43 KLMK 202010
RWRKY
NATIONAL WEATHER SERVICE LOUISVILLE KY
300 PM EST THU NOV 20 2014

NOTE "FAIR" INDICATES FEW OR NO CLOUDS BELOW 12,000 FEET
WITH NO SIGNIFICANT WEATHER AND/OR OBSTRUCTIONS TO VISIBILITY.

KYZ001>023-026-027-061>063-070>075-202100-
WESTERN AND SOUTH CENTRAL KENTUCKY

CITY           SKY/WX    TMP DP  RH WIND       PRES   REMARKS
PADUCAH        SUNNY     41  21  44 W8        30.23S
HENDERSON      SUNNY     36  18  48 W7        30.23S WCI  30
OWENSBORO      SUNNY     35  20  55 W9        30.23F WCI  28
HOPKINSVILLE   NOT AVBL
BOWLING GREEN  SUNNY     42  18  37 W8        30.22R
GLASGOW        SUNNY     40  19  43 W7        30.19F
$$

KYZ024-025-028>034-038-045-046-053-202100-
NORTH CENTRAL KENTUCKY

CITY           SKY/WX    TMP DP  RH WIND       PRES   REMARKS
LOUISVILLE/SDF SUNNY     35  16  45 SW12      30.19F WCI  27
LOUISVILLE/LOU SUNNY     33  15  47 W12       30.20S WCI  24
FORT KNOX      SUNNY     33  17  51 W12       30.17F WCI  25
$$

KYZ035>037-039>044-047>052-055>060-089>105-202100-
NORTHEAST KENTUCKY

CITY           SKY/WX    TMP DP  RH WIND       PRES   REMARKS
LEXINGTON      SUNNY     33  16  49 SW14      30.16S WCI  23
COVINGTON      MOSUNNY   30  13  49 W12       30.13S WCI  20
FRANKFORT      SUNNY     33  16  49 W10       30.16S WCI  25
$$

KYZ054-064>069-076>088-106>120-202100-
SOUTHEAST KENTUCKY

CITY           SKY/WX    TMP DP  RH WIND       PRES   REMARKS
JACKSON        SUNNY     42  17  36 VRB3      30.10S
LONDON         SUNNY     43  16  33 W10       30.14S
SOMERSET       SUNNY     41  16  36 W10G16    30.18S
MIDDLESBORO    SUNNY     48  25  40 W7        30.12F
MONTICELLO     CLEAR     44  18  35 VRB7      30.20R
$$




USA.gov is the U.S. government's official web portal to all federal, state and local government web resources and services.